This is the latest recevied weather packets stored in our database for station/object N3WMC. If no packets are shown the sender has not sent any weather packets the latest 10 day(s).
| Time | Temp. | Humidity | Pressure | Rain* | Wind** | Luminosity | Snow |
|---|---|---|---|---|---|---|---|
| 1777750084 | 7.22° C | 69% | 1016.3 hPa | 0 mm | - | 226 W/m² | - |
| 1777749781 | 7.22° C | 71% | 1016.4 hPa | 0 mm | - | 237 W/m² | - |
| 1777749478 | 7.22° C | 71% | 1016.5 hPa | 0 mm | - | 214 W/m² | - |
| 1777749176 | 6.67° C | 73% | 1016.3 hPa | 0 mm | - | 246 W/m² | - |
| 1777748873 | 6.67° C | 74% | 1016.5 hPa | 0 mm | - | 274 W/m² | - |
| 1777748570 | 6.67° C | 75% | 1016.3 hPa | 0 mm | - | 185 W/m² | - |
| 1777748265 | 6.67° C | 78% | 1017 hPa | 0 mm | - | 131 W/m² | - |
| 1777747961 | 6.11° C | 78% | 1016.6 hPa | 0 mm | - | 112 W/m² | - |
| 1777747658 | 6.11° C | 77% | 1016.7 hPa | 0 mm | - | 115 W/m² | - |
| 1777747354 | 6.67° C | 77% | 1016.8 hPa | 0 mm | - | 135 W/m² | - |
| 1777747051 | 6.67° C | 76% | 1016.9 hPa | 0 mm | - | 144 W/m² | - |
| 1777746747 | 6.67° C | 78% | 1016.8 hPa | 0 mm | - | 161 W/m² | - |
| 1777746442 | 6.67° C | 77% | 1016.9 hPa | 0 mm | - | 148 W/m² | - |
| 1777746138 | 6.67° C | 77% | 1016.8 hPa | 0 mm | - | 121 W/m² | - |
| 1777745835 | 6.67° C | 77% | 1016.7 hPa | 0 mm | - | 134 W/m² | - |
| 1777745534 | 6.67° C | 77% | 1016.6 hPa | 0 mm | - | 151 W/m² | - |
| 1777745230 | 6.11° C | 77% | 1016.7 hPa | 0 mm | - | 180 W/m² | - |
| 1777744928 | 6.67° C | 76% | 1016.4 hPa | 0 mm | - | 172 W/m² | - |
| 1777744622 | 6.67° C | 78% | 1016.8 hPa | 0 mm | - | 171 W/m² | - |
| 1777744317 | 6.67° C | 79% | 1016.8 hPa | 0 mm | - | 147 W/m² | - |
| 1777744015 | 6.67° C | 80% | 1016.4 hPa | 0 mm | - | 179 W/m² | - |
| 1777743710 | 6.11° C | 82% | 1016.5 hPa | 0 mm | - | 191 W/m² | - |
| 1777743408 | 6.11° C | 82% | 1016.6 hPa | 0 mm | - | 186 W/m² | - |
| 1777743106 | 6.11° C | 82% | 1016.8 hPa | 0 mm | - | 157 W/m² | - |
| 1777742802 | 6.11° C | 82% | 1016.7 hPa | 0 mm | - | 121 W/m² | - |
* Rain latest hour (hover to see other rain measurements)
** Current wind speed in m/s (hover to see current wind gust speed)